Time,TemperatureF,DewpointF,PressureIn,WindDirection,WindDirectionDegrees,WindSpeedMPH,WindSpeedGustMPH,Humidity,HourlyPrecipIn,Conditions,Clouds,dailyrainin,SoftwareType,DateUTC
2013-03-04 00:00:00,27.6,12.2,29.94,WNW,287,9.0,9.0,52,0.00,,,0.00,Wunderground v.1.15,2013-03-04 05:00:00,
2013-03-04 00:01:00,27.6,12.2,29.94,NW,321,4.0,9.0,52,0.00,,,0.00,Wunderground v.1.15,2013-03-04 05:01:00,
2013-03-04 00:02:00,27.6,12.7,29.94,NW,319,2.0,9.0,53,0.00,,,0.00,Wunderground v.1.15,2013-03-04 05:02:00,
2013-03-04 00:07:00,27.5,12.6,29.95,NW,313,2.0,9.0,53,0.00,,,0.00,Wunderground v.1.15,2013-03-04 05:07:00,
2013-03-04 00:12:00,27.5,12.6,29.94,NW,311,7.0,7.0,53,0.00,,,0.00,Wunderground v.1.15,2013-03-04 05:12:00,
2013-03-04 00:17:00,27.5,12.6,29.94,WNW,286,3.0,7.0,53,0.00,,,0.00,Wunderground v.1.15,2013-03-04 05:17:00,
2013-03-04 00:22:00,27.3,12.8,29.95,WNW,294,4.0,6.0,54,0.00,,,0.00,Wunderground v.1.15,2013-03-04 05:22:00,
2013-03-04 00:27:00,27.3,12.4,29.94,NW,306,5.0,12.0,53,0.00,,,0.00,Wunderground v.1.15,2013-03-04 05:27:00,
2013-03-04 00:30:00,26.7,12.3,29.95,WNW,292,3.0,11.0,54,0.00,,---,0.00,VWS V14.01,2013-03-04 05:30:00,
2013-03-04 00:32:00,27.3,12.4,29.94,WSW,254,10.0,10.0,53,0.00,,,0.00,Wunderground v.1.15,2013-03-04 05:32:00,
2013-03-04 00:37:00,27.3,12.4,29.95,NW,304,6.0,10.0,53,0.00,,,0.00,Wunderground v.1.15,2013-03-04 05:37:00,
2013-03-04 00:42:00,27.3,12.4,29.95,West,277,3.0,5.0,53,0.00,,,0.00,Wunderground v.1.15,2013-03-04 05:42:00,
2013-03-04 00:47:00,27.2,12.3,29.95,West,275,6.0,12.0,53,0.00,,,0.00,Wunderground v.1.15,2013-03-04 05:47:00,
2013-03-04 00:52:00,27.2,12.3,29.95,West,269,7.0,7.0,53,0.00,,,0.00,Wunderground v.1.15,2013-03-04 05:52:00,
2013-03-04 00:57:00,27.2,12.3,29.95,WNW,292,5.0,7.0,53,0.00,,,0.00,Wunderground v.1.15,2013-03-04 05:57:00,
2013-03-04 01:00:00,26.4,12.4,29.95,WNW,292,3.0,10.0,55,0.00,,---,0.00,VWS V14.01,2013-03-04 06:00:00,
2013-03-04 01:02:00,27.2,12.3,29.95,WSW,254,7.0,7.0,53,0.00,,,0.00,Wunderground v.1.15,2013-03-04 06:02:00,
2013-03-04 01:07:00,27.0,12.5,29.95,NW,306,3.0,7.0,54,0.00,,,0.00,Wunderground v.1.15,2013-03-04 06:07:00,
2013-03-04 01:12:00,26.9,12.5,29.95,West,259,2.0,4.0,54,0.00,,,0.00,Wunderground v.1.15,2013-03-04 06:12:00,
2013-03-04 01:17:00,26.9,12.5,29.95,WNW,303,2.0,7.0,54,0.00,,,0.00,Wunderground v.1.15,2013-03-04 06:17:00,
2013-03-04 01:22:00,26.9,12.5,29.95,WNW,296,6.0,6.0,54,0.00,,,0.00,Wunderground v.1.15,2013-03-04 06:22:00,
2013-03-04 01:27:00,26.9,12.5,29.95,NW,308,2.0,6.0,54,0.00,,,0.00,Wunderground v.1.15,2013-03-04 06:27:00,
2013-03-04 01:30:00,26.4,12.8,29.95,NW,315,5.0,16.0,56,0.00,,---,0.00,VWS V14.01,2013-03-04 06:30:00,
2013-03-04 01:32:00,26.7,12.3,29.95,WNW,298,2.0,4.0,54,0.00,,,0.00,Wunderground v.1.15,2013-03-04 06:32:00,
2013-03-04 01:37:00,26.6,12.6,29.95,WNW,287,5.0,5.0,55,0.00,,,0.00,Wunderground v.1.15,2013-03-04 06:37:00,
2013-03-04 01:42:00,26.6,12.6,29.96,WNW,284,3.0,3.0,55,0.00,,,0.00,Wunderground v.1.15,2013-03-04 06:42:00,
2013-03-04 01:47:00,26.6,12.6,29.95,WNW,285,5.0,5.0,55,0.00,,,0.00,Wunderground v.1.15,2013-03-04 06:47:00,
2013-03-04 01:53:00,26.4,12.4,29.96,NW,315,3.0,6.0,55,0.00,,,0.00,Wunderground v.1.15,2013-03-04 06:53:00,
2013-03-04 01:58:00,26.4,12.4,29.95,NW,313,3.0,6.0,55,0.00,,,0.00,Wunderground v.1.15,2013-03-04 06:58:00,
2013-03-04 02:00:00,26.1,13.0,29.95,NW,315,5.0,15.0,57,0.00,,---,0.00,VWS V14.01,2013-03-04 07:00:00,
2013-03-04 02:03:00,26.4,12.8,29.95,NW,319,6.0,7.0,56,0.00,,,0.00,Wunderground v.1.15,2013-03-04 07:03:00,
2013-03-04 02:08:00,26.6,12.6,29.95,NNW,337,4.0,10.0,55,0.00,,,0.00,Wunderground v.1.15,2013-03-04 07:08:00,
2013-03-04 02:13:00,26.6,12.6,29.96,WNW,302,5.0,14.0,55,0.00,,,0.00,Wunderground v.1.15,2013-03-04 07:13:00,
2013-03-04 02:18:00,26.6,12.6,29.95,WNW,301,4.0,14.0,55,0.00,,,0.00,Wunderground v.1.15,2013-03-04 07:18:00,
2013-03-04 02:23:00,26.4,12.8,29.95,NW,325,3.0,11.0,56,0.00,,,0.00,Wunderground v.1.15,2013-03-04 07:23:00,
2013-03-04 02:28:00,26.4,12.8,29.95,NW,313,4.0,11.0,56,0.00,,,0.00,Wunderground v.1.15,2013-03-04 07:28:00,
2013-03-04 02:30:00,25.8,12.7,29.96,WNW,292,3.0,9.0,57,0.00,,---,0.00,VWS V14.01,2013-03-04 07:30:00,
2013-03-04 02:33:00,26.4,13.2,29.95,WNW,286,5.0,12.0,57,0.00,,,0.00,Wunderground v.1.15,2013-03-04 07:33:00,
2013-03-04 02:38:00,26.3,13.1,29.95,West,277,15.0,15.0,57,0.00,,,0.00,Wunderground v.1.15,2013-03-04 07:38:00,
2013-03-04 02:44:00,26.3,13.1,29.95,NW,306,4.0,12.0,57,0.00,,,0.00,Wunderground v.1.15,2013-03-04 07:44:00,
2013-03-04 02:49:00,26.3,13.1,29.95,WNW,286,12.0,12.0,57,0.00,,,0.00,Wunderground v.1.15,2013-03-04 07:49:00,
2013-03-04 02:54:00,26.1,12.9,29.96,NW,311,3.0,6.0,57,0.00,,,0.00,Wunderground v.1.15,2013-03-04 07:54:00,
2013-03-04 02:59:00,26.1,12.9,29.95,NW,313,2.0,6.0,57,0.00,,,0.00,Wunderground v.1.15,2013-03-04 07:59:00,
2013-03-04 03:00:00,26.4,12.8,29.97,NW,315,5.0,13.0,56,0.00,,---,0.00,VWS V14.01,2013-03-04 08:00:00,
2013-03-04 03:04:00,26.0,12.8,29.95,NW,318,3.0,8.0,57,0.00,,,0.00,Wunderground v.1.15,2013-03-04 08:04:00,
2013-03-04 03:09:00,26.0,12.8,29.95,WNW,296,2.0,8.0,57,0.00,,,0.00,Wunderground v.1.15,2013-03-04 08:09:00,
2013-03-04 03:14:00,25.8,12.6,29.95,NW,304,3.0,5.0,57,0.00,,,0.00,Wunderground v.1.15,2013-03-04 08:14:00,
2013-03-04 03:19:00,25.8,13.0,29.95,NW,304,5.0,7.0,58,0.00,,,0.00,Wunderground v.1.15,2013-03-04 08:19:00,
2013-03-04 03:24:00,25.8,13.0,29.95,West,277,6.0,7.0,58,0.00,,,0.00,Wunderground v.1.15,2013-03-04 08:24:00,
2013-03-04 03:29:00,25.8,12.6,29.96,WNW,288,4.0,9.0,57,0.00,,,0.00,Wunderground v.1.15,2013-03-04 08:29:00,
2013-03-04 03:30:00,26.4,13.2,29.98,NW,315,5.0,15.0,57,0.00,,---,0.00,VWS V14.01,2013-03-04 08:30:00,
2013-03-04 03:34:00,26.0,12.8,29.96,NW,315,5.0,10.0,57,0.00,,,0.00,Wunderground v.1.15,2013-03-04 08:34:00,
2013-03-04 03:39:00,26.1,12.9,29.96,NW,325,3.0,10.0,57,0.00,,,0.00,Wunderground v.1.15,2013-03-04 08:39:00,
2013-03-04 03:44:00,26.3,13.1,29.96,WNW,295,4.0,9.0,57,0.00,,,0.00,Wunderground v.1.15,2013-03-04 08:44:00,
2013-03-04 03:49:00,26.3,13.1,29.96,NNW,336,3.0,9.0,57,0.00,,,0.00,Wunderground v.1.15,2013-03-04 08:49:00,
2013-03-04 03:54:00,26.3,13.1,29.96,NW,304,3.0,12.0,57,0.00,,,0.00,Wunderground v.1.15,2013-03-04 08:54:00,
2013-03-04 03:59:00,26.4,12.8,29.97,WNW,294,4.0,13.0,56,0.00,,,0.00,Wunderground v.1.15,2013-03-04 08:59:00,
2013-03-04 04:00:00,26.0,12.5,29.98,NW,315,5.0,14.0,56,0.00,,---,0.00,VWS V14.01,2013-03-04 09:00:00,
2013-03-04 04:04:00,26.4,13.2,29.97,West,277,10.0,10.0,57,0.00,,,0.00,Wunderground v.1.15,2013-03-04 09:04:00,
2013-03-04 04:09:00,26.6,13.0,29.97,WNW,301,2.0,13.0,56,0.00,,,0.00,Wunderground v.1.15,2013-03-04 09:09:00,
2013-03-04 04:14:00,26.6,13.0,29.97,NW,325,4.0,7.0,56,0.00,,,0.00,Wunderground v.1.15,2013-03-04 09:14:00,
2013-03-04 04:19:00,26.4,12.8,29.97,NW,323,4.0,15.0,56,0.00,,,0.00,Wunderground v.1.15,2013-03-04 09:19:00,
2013-03-04 04:24:00,26.4,12.8,29.97,West,275,5.0,11.0,56,0.00,,,0.00,Wunderground v.1.15,2013-03-04 09:24:00,
2013-03-04 04:29:00,26.4,13.2,29.98,NNW,338,5.0,12.0,57,0.00,,,0.00,Wunderground v.1.15,2013-03-04 09:29:00,
2013-03-04 04:30:00,25.7,12.2,29.99,NW,315,5.0,14.0,56,0.00,,---,0.00,VWS V14.01,2013-03-04 09:30:00,
2013-03-04 04:34:00,26.4,13.2,29.98,West,281,6.0,8.0,57,0.00,,,0.00,Wunderground v.1.15,2013-03-04 09:34:00,
2013-03-04 04:39:00,26.3,13.1,29.98,NW,306,3.0,10.0,57,0.00,,,0.00,Wunderground v.1.15,2013-03-04 09:39:00,
2013-03-04 04:44:00,26.1,12.9,29.98,West,276,5.0,10.0,57,0.00,,,0.00,Wunderground v.1.15,2013-03-04 09:44:00,
2013-03-04 04:49:00,26.1,12.5,29.98,NW,321,5.0,14.0,56,0.00,,,0.00,Wunderground v.1.15,2013-03-04 09:49:00,
2013-03-04 04:54:00,26.1,12.5,29.98,NW,315,4.0,11.0,56,0.00,,,0.00,Wunderground v.1.15,2013-03-04 09:54:00,
2013-03-04 04:59:00,26.0,12.4,29.98,West,276,6.0,11.0,56,0.00,,,0.00,Wunderground v.1.15,2013-03-04 09:59:00,
2013-03-04 05:00:00,25.6,12.1,30.00,NW,315,5.0,15.0,56,0.00,,---,0.00,VWS V14.01,2013-03-04 10:00:00,
2013-03-04 05:05:00,26.0,12.4,29.98,WNW,301,3.0,14.0,56,0.00,,,0.00,Wunderground v.1.15,2013-03-04 10:05:00,
2013-03-04 05:10:00,25.8,11.8,29.99,NNW,339,10.0,10.0,55,0.00,,,0.00,Wunderground v.1.15,2013-03-04 10:10:00,
2013-03-04 05:15:00,25.8,11.8,29.99,NW,321,5.0,13.0,55,0.00,,,0.00,Wunderground v.1.15,2013-03-04 10:15:00,
2013-03-04 05:20:00,25.8,11.8,29.99,NW,311,2.0,6.0,55,0.00,,,0.00,Wunderground v.1.15,2013-03-04 10:20:00,
2013-03-04 05:25:00,25.8,12.2,29.99,WNW,295,5.0,10.0,56,0.00,,,0.00,Wunderground v.1.15,2013-03-04 10:25:00,
2013-03-04 05:30:00,25.7,12.2,29.99,WNW,288,5.0,5.0,56,0.00,,,0.00,Wunderground v.1.15,2013-03-04 10:30:00,
2013-03-04 05:35:00,25.7,12.2,29.99,NW,325,6.0,11.0,56,0.00,,,0.00,Wunderground v.1.15,2013-03-04 10:35:00,
2013-03-04 05:40:00,25.8,12.2,30.00,SW,215,5.0,6.0,56,0.00,,,0.00,Wunderground v.1.15,2013-03-04 10:40:00,
2013-03-04 05:45:00,25.8,12.2,30.00,NW,319,15.0,15.0,56,0.00,,,0.00,Wunderground v.1.15,2013-03-04 10:45:00,
2013-03-04 05:50:00,25.7,12.2,30.00,NW,326,3.0,6.0,56,0.00,,,0.00,Wunderground v.1.15,2013-03-04 10:50:00,
2013-03-04 05:55:00,25.7,12.2,30.00,NW,306,4.0,6.0,56,0.00,,,0.00,Wunderground v.1.15,2013-03-04 10:55:00,
2013-03-04 06:00:00,25.6,12.1,30.01,NW,311,4.0,4.0,56,0.00,,,0.00,Wunderground v.1.15,2013-03-04 11:00:00,
2013-03-04 06:05:00,25.4,12.3,30.01,NW,306,2.0,4.0,57,0.00,,,0.00,Wunderground v.1.15,2013-03-04 11:05:00,
2013-03-04 06:10:00,25.3,12.2,30.01,NW,304,3.0,5.0,57,0.00,,,0.00,Wunderground v.1.15,2013-03-04 11:10:00,
2013-03-04 06:15:00,25.3,11.8,30.01,NW,321,3.0,11.0,56,0.00,,,0.00,Wunderground v.1.15,2013-03-04 11:15:00,
2013-03-04 06:20:00,25.3,12.2,30.01,WNW,290,1.0,5.0,57,0.00,,,0.00,Wunderground v.1.15,2013-03-04 11:20:00,
2013-03-04 06:25:00,25.1,11.6,30.01,WNW,286,5.0,9.0,56,0.00,,,0.00,Wunderground v.1.15,2013-03-04 11:25:00,
2013-03-04 06:30:00,25.1,11.6,30.02,WNW,291,1.0,3.0,56,0.00,,,0.00,Wunderground v.1.15,2013-03-04 11:30:00,
2013-03-04 06:35:00,25.1,12.0,30.02,West,268,3.0,7.0,57,0.00,,,0.00,Wunderground v.1.15,2013-03-04 11:35:00,
2013-03-04 06:40:00,25.0,11.9,30.02,WNW,303,4.0,4.0,57,0.00,,,0.00,Wunderground v.1.15,2013-03-04 11:40:00,
2013-03-04 06:45:00,25.0,11.5,30.01,West,278,4.0,11.0,56,0.00,,,0.00,Wunderground v.1.15,2013-03-04 11:45:00,
2013-03-04 06:50:00,25.0,11.5,30.01,West,271,4.0,7.0,56,0.00,,,0.00,Wunderground v.1.15,2013-03-04 11:50:00,
2013-03-04 06:55:00,25.0,11.1,30.01,West,260,3.0,11.0,55,0.00,,,0.00,Wunderground v.1.15,2013-03-04 11:55:00,
2013-03-04 07:00:00,24.8,11.3,30.02,WNW,285,4.0,5.0,56,0.00,,,0.00,Wunderground v.1.15,2013-03-04 12:00:00,
2013-03-04 07:05:00,24.8,11.3,30.02,SW,217,4.0,5.0,56,0.00,,,0.00,Wunderground v.1.15,2013-03-04 12:05:00,
2013-03-04 07:10:00,24.8,10.5,30.02,West,273,7.0,14.0,54,0.00,,,0.00,Wunderground v.1.15,2013-03-04 12:10:00,
2013-03-04 07:15:00,25.1,11.2,30.01,West,266,2.0,14.0,55,0.00,,,0.00,Wunderground v.1.15,2013-03-04 12:15:00,
2013-03-04 07:20:00,25.1,10.8,30.01,NW,307,4.0,6.0,54,0.00,,,0.00,Wunderground v.1.15,2013-03-04 12:20:00,
2013-03-04 07:25:00,25.3,10.5,30.02,West,273,7.0,11.0,53,0.00,,,0.00,Wunderground v.1.15,2013-03-04 12:25:00,
2013-03-04 07:30:00,25.4,10.6,30.02,NW,325,5.0,6.0,53,0.00,,,0.00,Wunderground v.1.15,2013-03-04 12:30:00,
2013-03-04 07:36:00,25.6,10.8,30.02,West,272,1.0,7.0,53,0.00,,,0.00,Wunderground v.1.15,2013-03-04 12:36:00,
2013-03-04 07:41:00,25.8,11.0,30.02,SE,134,3.0,7.0,53,0.00,,,0.00,Wunderground v.1.15,2013-03-04 12:41:00,
2013-03-04 07:46:00,26.1,10.4,30.02,NW,318,2.0,19.0,51,0.00,,,0.00,Wunderground v.1.15,2013-03-04 12:46:00,
2013-03-04 07:51:00,26.3,11.0,30.02,WNW,284,5.0,5.0,52,0.00,,,0.00,Wunderground v.1.15,2013-03-04 12:51:00,
2013-03-04 07:56:00,26.6,10.9,30.03,WNW,284,7.0,11.0,51,0.00,,,0.00,Wunderground v.1.15,2013-03-04 12:56:00,
2013-03-04 08:00:00,29.0,12.7,30.03,NW,315,6.0,19.0,50,0.00,,---,0.00,VWS V14.01,2013-03-04 13:00:00,
2013-03-04 08:01:00,26.7,11.0,30.03,West,281,8.0,8.0,51,0.00,,,0.00,Wunderground v.1.15,2013-03-04 13:01:00,
2013-03-04 08:06:00,27.0,11.3,30.03,NNW,336,4.0,11.0,51,0.00,,,0.00,Wunderground v.1.15,2013-03-04 13:06:00,
2013-03-04 08:11:00,27.3,11.1,30.03,NW,325,4.0,10.0,50,0.00,,,0.00,Wunderground v.1.15,2013-03-04 13:11:00,
2013-03-04 08:16:00,27.6,10.9,30.03,NW,323,4.0,12.0,49,0.00,,,0.00,Wunderground v.1.15,2013-03-04 13:16:00,
2013-03-04 08:21:00,27.8,11.1,30.03,NW,321,2.0,11.0,49,0.00,,,0.00,Wunderground v.1.15,2013-03-04 13:21:00,
2013-03-04 08:26:00,27.8,11.1,30.03,West,274,10.0,15.0,49,0.00,,,0.00,Wunderground v.1.15,2013-03-04 13:26:00,
2013-03-04 08:30:00,30.4,13.1,30.03,NW,315,7.0,17.0,48,0.00,,---,0.00,VWS V14.01,2013-03-04 13:30:00,
2013-03-04 08:31:00,27.9,11.6,30.03,WNW,301,3.0,7.0,50,0.00,,,0.00,Wunderground v.1.15,2013-03-04 13:31:00,
2013-03-04 08:36:00,28.4,11.2,30.03,WNW,284,6.0,13.0,48,0.00,,,0.00,Wunderground v.1.15,2013-03-04 13:36:00,
2013-03-04 08:41:00,28.4,11.2,30.03,WNW,285,7.0,14.0,48,0.00,,,0.00,Wunderground v.1.15,2013-03-04 13:41:00,
2013-03-04 08:46:00,28.5,11.7,30.03,NW,321,7.0,14.0,49,0.00,,,0.00,Wunderground v.1.15,2013-03-04 13:46:00,
2013-03-04 08:51:00,28.7,11.9,30.03,NW,316,9.0,11.0,49,0.00,,,0.00,Wunderground v.1.15,2013-03-04 13:51:00,
2013-03-04 08:56:00,28.8,12.0,30.03,NW,306,5.0,18.0,49,0.00,,,0.00,Wunderground v.1.15,2013-03-04 13:56:00,
2013-03-04 09:00:00,31.8,13.9,30.03,NW,315,6.0,16.0,47,0.00,,---,0.00,VWS V14.01,2013-03-04 14:00:00,
2013-03-04 09:01:00,29.1,12.8,30.03,WNW,290,9.0,12.0,50,0.00,,,0.00,Wunderground v.1.15,2013-03-04 14:01:00,
2013-03-04 09:06:00,29.3,12.5,30.03,NW,315,11.0,12.0,49,0.00,,,0.00,Wunderground v.1.15,2013-03-04 14:06:00,
2013-03-04 09:11:00,29.3,12.5,30.03,NW,324,5.0,9.0,49,0.00,,,0.00,Wunderground v.1.15,2013-03-04 14:11:00,
2013-03-04 09:16:00,29.7,12.8,30.03,WNW,301,8.0,11.0,49,0.00,,,0.00,Wunderground v.1.15,2013-03-04 14:16:00,
2013-03-04 09:21:00,30.0,12.7,30.03,NW,322,6.0,11.0,48,0.00,,,0.00,Wunderground v.1.15,2013-03-04 14:21:00,
2013-03-04 09:26:00,30.3,12.9,30.03,NW,307,11.0,13.0,48,0.00,,,0.00,Wunderground v.1.15,2013-03-04 14:26:00,
2013-03-04 09:30:00,32.8,14.3,30.04,NW,315,7.0,17.0,46,0.00,,---,0.00,VWS V14.01,2013-03-04 14:30:00,
2013-03-04 09:31:00,30.4,13.0,30.04,NW,306,7.0,7.0,48,0.00,,,0.00,Wunderground v.1.15,2013-03-04 14:31:00,
2013-03-04 09:36:00,30.6,12.2,30.03,WNW,286,9.0,11.0,46,0.00,,,0.00,Wunderground v.1.15,2013-03-04 14:36:00,
2013-03-04 09:41:00,30.4,12.5,30.04,WNW,283,5.0,7.0,47,0.00,,,0.00,Wunderground v.1.15,2013-03-04 14:41:00,
2013-03-04 09:46:00,30.9,13.5,30.03,WNW,282,14.0,16.0,48,0.00,,,0.00,Wunderground v.1.15,2013-03-04 14:46:00,
2013-03-04 09:51:00,31.3,13.4,30.03,NW,310,6.0,9.0,47,0.00,,,0.00,Wunderground v.1.15,2013-03-04 14:51:00,
2013-03-04 09:57:00,31.6,13.7,30.03,WNW,283,4.0,9.0,47,0.00,,,0.00,Wunderground v.1.15,2013-03-04 14:57:00,
2013-03-04 10:00:00,33.1,14.6,30.04,NW,315,7.0,19.0,46,0.00,,---,0.00,VWS V14.01,2013-03-04 15:00:00,
2013-03-04 10:02:00,31.9,13.4,30.03,North,349,6.0,6.0,46,0.00,,,0.00,Wunderground v.1.15,2013-03-04 15:02:00,
2013-03-04 10:07:00,31.9,13.4,30.03,NW,312,10.0,17.0,46,0.00,,,0.00,Wunderground v.1.15,2013-03-04 15:07:00,
2013-03-04 10:12:00,31.8,14.3,30.04,NW,307,7.0,13.0,48,0.00,,,0.00,Wunderground v.1.15,2013-03-04 15:12:00,
2013-03-04 10:17:00,31.9,13.9,30.04,WNW,298,7.0,13.0,47,0.00,,,0.00,Wunderground v.1.15,2013-03-04 15:17:00,
2013-03-04 10:22:00,32.4,14.9,30.04,NW,326,7.0,7.0,48,0.00,,,0.00,Wunderground v.1.15,2013-03-04 15:22:00,
2013-03-04 10:27:00,32.7,14.7,30.04,North,355,2.0,12.0,47,0.00,,,0.00,Wunderground v.1.15,2013-03-04 15:27:00,
2013-03-04 10:30:00,33.8,15.2,30.03,NW,315,7.0,18.0,46,0.00,,---,0.00,VWS V14.01,2013-03-04 15:30:00,
2013-03-04 10:32:00,32.9,14.4,30.03,WNW,286,10.0,14.0,46,0.00,,,0.00,Wunderground v.1.15,2013-03-04 15:32:00,
2013-03-04 10:37:00,32.7,14.2,30.04,NW,317,7.0,17.0,46,0.00,,,0.00,Wunderground v.1.15,2013-03-04 15:37:00,
2013-03-04 10:42:00,32.8,14.3,30.04,NW,317,6.0,12.0,46,0.00,,,0.00,Wunderground v.1.15,2013-03-04 15:42:00,
2013-03-04 10:47:00,32.9,14.4,30.03,WNW,300,6.0,16.0,46,0.00,,,0.00,Wunderground v.1.15,2013-03-04 15:47:00,
2013-03-04 10:52:00,33.1,14.5,30.03,WNW,297,5.0,12.0,46,0.00,,,0.00,Wunderground v.1.15,2013-03-04 15:52:00,
2013-03-04 10:57:00,33.1,15.0,30.04,West,277,10.0,13.0,47,0.00,,,0.00,Wunderground v.1.15,2013-03-04 15:57:00,
2013-03-04 11:00:00,35.2,14.4,30.02,NW,315,6.0,16.0,42,0.00,,---,0.00,VWS V14.01,2013-03-04 16:00:00,
2013-03-04 11:02:00,33.2,14.1,30.04,NW,317,6.0,16.0,45,0.00,,,0.00,Wunderground v.1.15,2013-03-04 16:02:00,
2013-03-04 11:07:00,33.5,14.9,30.04,WNW,295,8.0,16.0,46,0.00,,,0.00,Wunderground v.1.15,2013-03-04 16:07:00,
2013-03-04 11:12:00,33.5,14.4,30.04,WSW,246,6.0,16.0,45,0.00,,,0.00,Wunderground v.1.15,2013-03-04 16:12:00,
2013-03-04 11:17:00,33.4,14.3,30.04,NW,323,4.0,16.0,45,0.00,,,0.00,Wunderground v.1.15,2013-03-04 16:17:00,
2013-03-04 11:22:00,33.7,15.6,30.04,WSW,257,11.0,14.0,47,0.00,,,0.00,Wunderground v.1.15,2013-03-04 16:22:00,
2013-03-04 11:27:00,33.8,14.2,30.03,WNW,301,7.0,15.0,44,0.00,,,0.00,Wunderground v.1.15,2013-03-04 16:27:00,
2013-03-04 11:30:00,36.0,13.5,30.01,NW,315,4.0,13.0,39,0.00,,---,0.00,VWS V14.01,2013-03-04 16:30:00,
2013-03-04 11:32:00,34.0,14.9,30.03,NW,322,5.0,16.0,45,0.00,,,0.00,Wunderground v.1.15,2013-03-04 16:32:00,
2013-03-04 11:38:00,34.1,14.4,30.03,NW,317,4.0,16.0,44,0.00,,,0.00,Wunderground v.1.15,2013-03-04 16:38:00,
2013-03-04 11:43:00,34.4,15.2,30.03,WNW,283,5.0,12.0,45,0.00,,,0.00,Wunderground v.1.15,2013-03-04 16:43:00,
2013-03-04 11:48:00,34.7,13.4,30.03,WNW,302,8.0,12.0,41,0.00,,,0.00,Wunderground v.1.15,2013-03-04 16:48:00,
2013-03-04 11:53:00,34.9,14.1,30.03,WNW,296,6.0,13.0,42,0.00,,,0.00,Wunderground v.1.15,2013-03-04 16:53:00,
2013-03-04 11:58:00,35.0,13.6,30.02,West,278,10.0,16.0,41,0.00,,,0.00,Wunderground v.1.15,2013-03-04 16:58:00,
2013-03-04 12:00:00,37.6,14.3,29.99,NW,315,4.0,11.0,38,0.00,,---,0.00,VWS V14.01,2013-03-04 17:00:00,
2013-03-04 12:03:00,35.5,15.2,30.02,NW,319,5.0,13.0,43,0.00,,,0.00,Wunderground v.1.15,2013-03-04 17:03:00,
2013-03-04 12:08:00,35.8,14.9,30.02,NNE,13,4.0,13.0,42,0.00,,,0.00,Wunderground v.1.15,2013-03-04 17:08:00,
2013-03-04 12:13:00,35.9,14.5,30.02,NW,310,10.0,10.0,41,0.00,,,0.00,Wunderground v.1.15,2013-03-04 17:13:00,
2013-03-04 12:18:00,35.9,15.5,30.01,NW,317,3.0,10.0,43,0.00,,,0.00,Wunderground v.1.15,2013-03-04 17:18:00,
2013-03-04 12:23:00,36.2,14.7,30.01,NW,306,6.0,12.0,41,0.00,,,0.00,Wunderground v.1.15,2013-03-04 17:23:00,
2013-03-04 12:28:00,36.0,14.5,30.01,NW,319,4.0,12.0,41,0.00,,,0.00,Wunderground v.1.15,2013-03-04 17:28:00,
2013-03-04 12:30:00,38.8,14.8,29.98,NW,315,4.0,13.0,37,0.00,,---,0.00,VWS V14.01,2013-03-04 17:30:00,
2013-03-04 12:33:00,36.3,14.8,30.01,NW,307,3.0,6.0,41,0.00,,,0.00,Wunderground v.1.15,2013-03-04 17:33:00,
2013-03-04 12:38:00,36.8,14.7,30.00,NW,324,5.0,7.0,40,0.00,,,0.00,Wunderground v.1.15,2013-03-04 17:38:00,
2013-03-04 12:43:00,36.9,15.9,30.00,WSW,250,3.0,7.0,42,0.00,,,0.00,Wunderground v.1.15,2013-03-04 17:43:00,
2013-03-04 12:49:00,37.2,15.1,30.00,West,262,3.0,8.0,40,0.00,,,0.00,Wunderground v.1.15,2013-03-04 17:49:00,
2013-03-04 12:54:00,37.3,14.6,29.99,NW,313,2.0,7.0,39,0.00,,,0.00,Wunderground v.1.15,2013-03-04 17:54:00,
2013-03-04 12:59:00,37.5,15.3,29.99,WNW,298,9.0,11.0,40,0.00,,,0.00,Wunderground v.1.15,2013-03-04 17:59:00,
2013-03-04 13:00:00,39.3,13.3,29.97,NW,315,4.0,13.0,34,0.00,,---,0.00,VWS V14.01,2013-03-04 18:00:00,
2013-03-04 13:04:00,37.8,14.4,29.99,WSW,257,5.0,7.0,38,0.00,,,0.00,Wunderground v.1.15,2013-03-04 18:04:00,
2013-03-04 13:09:00,38.0,15.2,29.99,WNW,298,6.0,11.0,39,0.00,,,0.00,Wunderground v.1.15,2013-03-04 18:09:00,
2013-03-04 13:14:00,38.0,15.2,29.99,NNW,338,5.0,13.0,39,0.00,,,0.00,Wunderground v.1.15,2013-03-04 18:14:00,
2013-03-04 13:19:00,38.2,15.4,29.98,WNW,286,6.0,13.0,39,0.00,,,0.00,Wunderground v.1.15,2013-03-04 18:19:00,
2013-03-04 13:24:00,38.6,16.9,29.98,NNW,328,2.0,12.0,41,0.00,,,0.00,Wunderground v.1.15,2013-03-04 18:24:00,
2013-03-04 13:29:00,38.8,15.9,29.98,North,350,6.0,12.0,39,0.00,,,0.00,Wunderground v.1.15,2013-03-04 18:29:00,
2013-03-04 13:30:00,38.8,14.7,29.98,North,360,9.0,9.0,37,0.00,,,0.00,Wunderground v.1.15,2013-03-04 18:30:00,
2013-03-04 13:35:00,38.8,14.1,29.98,WNW,302,4.0,11.0,36,0.00,,,0.00,Wunderground v.1.15,2013-03-04 18:35:00,
2013-03-04 13:40:00,38.6,13.9,29.98,West,275,8.0,13.0,36,0.00,,,0.00,Wunderground v.1.15,2013-03-04 18:40:00,
2013-03-04 13:45:00,38.8,15.3,29.98,WNW,286,5.0,13.0,38,0.00,,,0.00,Wunderground v.1.15,2013-03-04 18:45:00,
2013-03-04 13:50:00,39.1,14.4,29.98,WNW,290,7.0,7.0,36,0.00,,,0.00,Wunderground v.1.15,2013-03-04 18:50:00,
2013-03-04 13:55:00,39.2,14.4,29.98,WNW,300,5.0,10.0,36,0.00,,,0.00,Wunderground v.1.15,2013-03-04 18:55:00,
2013-03-04 14:00:00,39.3,13.2,29.98,NW,319,2.0,5.0,34,0.00,,,0.00,Wunderground v.1.15,2013-03-04 19:00:00,
2013-03-04 14:05:00,39.3,13.9,29.97,North,5,3.0,10.0,35,0.00,,,0.00,Wunderground v.1.15,2013-03-04 19:05:00,
2013-03-04 14:10:00,39.3,13.9,29.97,North,10,5.0,5.0,35,0.00,,,0.00,Wunderground v.1.15,2013-03-04 19:10:00,
2013-03-04 14:15:00,39.3,14.5,29.97,NW,309,3.0,9.0,36,0.00,,,0.00,Wunderground v.1.15,2013-03-04 19:15:00,
2013-03-04 14:20:00,39.6,14.2,29.97,NW,305,5.0,9.0,35,0.00,,,0.00,Wunderground v.1.15,2013-03-04 19:20:00,
2013-03-04 14:25:00,39.9,13.1,29.96,NW,317,3.0,13.0,33,0.00,,,0.00,Wunderground v.1.15,2013-03-04 19:25:00,
2013-03-04 14:30:00,40.1,13.9,29.97,WSW,242,7.0,7.0,34,0.00,,,0.00,Wunderground v.1.15,2013-03-04 19:30:00,
2013-03-04 14:35:00,40.3,11.3,29.97,NW,306,6.0,15.0,30,0.00,,,0.00,Wunderground v.1.15,2013-03-04 19:35:00,
2013-03-04 14:40:00,40.2,12.6,29.97,WNW,288,11.0,14.0,32,0.00,,,0.00,Wunderground v.1.15,2013-03-04 19:40:00,
2013-03-04 14:45:00,40.3,12.7,29.96,NW,309,4.0,14.0,32,0.00,,,0.00,Wunderground v.1.15,2013-03-04 19:45:00,
2013-03-04 14:50:00,40.5,12.2,29.97,NNW,327,4.0,10.0,31,0.00,,,0.00,Wunderground v.1.15,2013-03-04 19:50:00,
2013-03-04 14:55:00,40.3,12.0,29.97,NW,321,5.0,10.0,31,0.00,,,0.00,Wunderground v.1.15,2013-03-04 19:55:00,
2013-03-04 15:00:00,41.3,12.2,29.97,WNW,292,4.0,10.0,30,0.00,,---,0.00,VWS V14.01,2013-03-04 20:00:00,
2013-03-04 15:01:00,40.6,11.5,29.97,WNW,300,12.0,13.0,30,0.00,,,0.00,Wunderground v.1.15,2013-03-04 20:01:00,
2013-03-04 15:06:00,40.6,11.5,29.97,West,280,4.0,13.0,30,0.00,,,0.00,Wunderground v.1.15,2013-03-04 20:06:00,
2013-03-04 15:11:00,40.6,13.7,29.97,NE,37,0.0,6.0,33,0.00,,,0.00,Wunderground v.1.15,2013-03-04 20:11:00,
2013-03-04 15:16:00,40.6,13.0,29.97,North,349,2.0,10.0,32,0.00,,,0.00,Wunderground v.1.15,2013-03-04 20:16:00,
2013-03-04 15:21:00,40.6,11.5,29.97,WNW,284,5.0,10.0,30,0.00,,,0.00,Wunderground v.1.15,2013-03-04 20:21:00,
2013-03-04 15:26:00,40.5,10.7,29.97,WSW,243,5.0,11.0,29,0.00,,,0.00,Wunderground v.1.15,2013-03-04 20:26:00,
2013-03-04 15:30:00,40.9,12.6,29.97,NW,315,4.0,13.0,31,0.00,,---,0.00,VWS V14.01,2013-03-04 20:30:00,
2013-03-04 15:31:00,40.6,15.0,29.97,NW,306,3.0,7.0,35,0.00,,,0.00,Wunderground v.1.15,2013-03-04 20:31:00,
2013-03-04 15:36:00,40.6,14.4,29.97,WSW,239,3.0,9.0,34,0.00,,,0.00,Wunderground v.1.15,2013-03-04 20:36:00,
2013-03-04 15:41:00,40.6,14.4,29.97,WNW,303,2.0,5.0,34,0.00,,,0.00,Wunderground v.1.15,2013-03-04 20:41:00,
2013-03-04 15:46:00,40.9,12.5,29.97,NW,313,4.0,7.0,31,0.00,,,0.00,Wunderground v.1.15,2013-03-04 20:46:00,
2013-03-04 15:51:00,40.9,12.5,29.97,WNW,300,2.0,7.0,31,0.00,,,0.00,Wunderground v.1.15,2013-03-04 20:51:00,
2013-03-04 15:56:00,41.1,12.0,29.97,WSW,238,4.0,10.0,30,0.00,,,0.00,Wunderground v.1.15,2013-03-04 20:56:00,
2013-03-04 16:00:00,40.5,11.5,29.97,NW,315,4.0,12.0,30,0.00,,---,0.00,VWS V14.01,2013-03-04 21:00:00,
2013-03-04 16:01:00,41.3,11.4,29.97,WSW,239,4.0,7.0,29,0.00,,,0.00,Wunderground v.1.15,2013-03-04 21:01:00,
2013-03-04 16:06:00,41.5,13.1,29.97,West,267,6.0,13.0,31,0.00,,,0.00,Wunderground v.1.15,2013-03-04 21:06:00,
2013-03-04 16:12:00,41.5,11.6,29.97,NW,325,3.0,7.0,29,0.00,,,0.00,Wunderground v.1.15,2013-03-04 21:12:00,
2013-03-04 16:17:00,41.2,12.1,29.97,NNW,338,5.0,12.0,30,0.00,,,0.00,Wunderground v.1.15,2013-03-04 21:17:00,
2013-03-04 16:22:00,41.1,12.0,29.97,West,281,3.0,10.0,30,0.00,,,0.00,Wunderground v.1.15,2013-03-04 21:22:00,
2013-03-04 16:27:00,40.9,12.5,29.97,NW,317,2.0,10.0,31,0.00,,,0.00,Wunderground v.1.15,2013-03-04 21:27:00,
2013-03-04 16:30:00,39.5,13.5,29.98,NW,315,3.0,12.0,34,0.00,,---,0.00,VWS V14.01,2013-03-04 21:30:00,
2013-03-04 16:32:00,40.9,11.8,29.97,WNW,296,6.0,8.0,30,0.00,,,0.00,Wunderground v.1.15,2013-03-04 21:32:00,
2013-03-04 16:37:00,40.8,12.5,29.97,WNW,300,1.0,11.0,31,0.00,,,0.00,Wunderground v.1.15,2013-03-04 21:37:00,
2013-03-04 16:42:00,40.8,12.5,29.97,WNW,292,3.0,9.0,31,0.00,,,0.00,Wunderground v.1.15,2013-03-04 21:42:00,
2013-03-04 16:47:00,40.8,12.5,29.97,NW,310,2.0,9.0,31,0.00,,,0.00,Wunderground v.1.15,2013-03-04 21:47:00,
2013-03-04 16:52:00,40.6,12.3,29.97,NW,319,4.0,6.0,31,0.00,,,0.00,Wunderground v.1.15,2013-03-04 21:52:00,
2013-03-04 16:57:00,40.6,11.5,29.97,NW,316,5.0,11.0,30,0.00,,,0.00,Wunderground v.1.15,2013-03-04 21:57:00,
2013-03-04 17:00:00,38.2,13.0,29.99,WNW,292,3.0,13.0,35,0.00,,---,0.00,VWS V14.01,2013-03-04 22:00:00,
2013-03-04 17:02:00,40.3,12.0,29.97,NW,309,5.0,10.0,31,0.00,,,0.00,Wunderground v.1.15,2013-03-04 22:02:00,
2013-03-04 17:07:00,40.2,11.9,29.97,NW,315,2.0,10.0,31,0.00,,,0.00,Wunderground v.1.15,2013-03-04 22:07:00,
2013-03-04 17:12:00,40.1,11.8,29.97,NNE,14,2.0,7.0,31,0.00,,,0.00,Wunderground v.1.15,2013-03-04 22:12:00,
2013-03-04 17:18:00,39.9,12.4,29.98,NNW,329,3.0,8.0,32,0.00,,,0.00,Wunderground v.1.15,2013-03-04 22:18:00,
2013-03-04 17:23:00,39.8,13.0,29.98,WNW,302,4.0,5.0,33,0.00,,,0.00,Wunderground v.1.15,2013-03-04 22:23:00,
2013-03-04 17:28:00,39.6,13.5,29.98,NNW,327,5.0,6.0,34,0.00,,,0.00,Wunderground v.1.15,2013-03-04 22:28:00,
2013-03-04 17:30:00,36.6,14.0,30.00,SW,225,2.0,10.0,39,0.00,,---,0.00,VWS V14.01,2013-03-04 22:30:00,
2013-03-04 17:33:00,39.3,12.6,29.98,WNW,294,2.0,7.0,33,0.00,,,0.00,Wunderground v.1.15,2013-03-04 22:33:00,
2013-03-04 17:38:00,39.1,13.7,29.98,NNW,333,2.0,7.0,35,0.00,,,0.00,Wunderground v.1.15,2013-03-04 22:38:00,
2013-03-04 17:43:00,38.8,13.4,29.98,West,264,3.0,4.0,35,0.00,,,0.00,Wunderground v.1.15,2013-03-04 22:43:00,
2013-03-04 17:48:00,38.6,13.3,29.99,NW,307,6.0,7.0,35,0.00,,,0.00,Wunderground v.1.15,2013-03-04 22:48:00,
2013-03-04 17:53:00,38.3,13.0,29.99,West,263,3.0,7.0,35,0.00,,,0.00,Wunderground v.1.15,2013-03-04 22:53:00,
2013-03-04 17:58:00,38.2,13.6,29.99,West,271,2.0,13.0,36,0.00,,,0.00,Wunderground v.1.15,2013-03-04 22:58:00,
2013-03-04 18:00:00,36.2,14.8,30.01,WNW,292,2.0,12.0,41,0.00,,---,0.00,VWS V14.01,2013-03-04 23:00:00,
2013-03-04 18:03:00,38.0,13.4,29.99,WNW,301,2.0,7.0,36,0.00,,,0.00,Wunderground v.1.15,2013-03-04 23:03:00,
2013-03-04 18:08:00,37.8,13.8,29.99,West,275,3.0,7.0,37,0.00,,,0.00,Wunderground v.1.15,2013-03-04 23:08:00,
2013-03-04 18:13:00,37.5,13.6,29.99,SSE,157,0.0,7.0,37,0.00,,,0.00,Wunderground v.1.15,2013-03-04 23:13:00,
2013-03-04 18:18:00,37.0,13.7,30.00,SSW,198,1.0,7.0,38,0.00,,,0.00,Wunderground v.1.15,2013-03-04 23:18:00,
2013-03-04 18:23:00,36.8,13.5,30.00,SW,219,4.0,10.0,38,0.00,,,0.00,Wunderground v.1.15,2013-03-04 23:23:00,
2013-03-04 18:28:00,36.6,13.9,30.00,SW,227,0.0,10.0,39,0.00,,,0.00,Wunderground v.1.15,2013-03-04 23:28:00,
2013-03-04 18:30:00,36.2,14.8,30.02,WNW,292,3.0,14.0,41,0.00,,---,0.00,VWS V14.01,2013-03-04 23:30:00,
2013-03-04 18:33:00,36.5,15.0,30.00,East,99,0.0,2.0,41,0.00,,,0.00,Wunderground v.1.15,2013-03-04 23:33:00,
2013-03-04 18:38:00,36.2,14.7,30.00,ESE,119,1.0,3.0,41,0.00,,,0.00,Wunderground v.1.15,2013-03-04 23:38:00,
2013-03-04 18:43:00,35.9,13.9,30.01,NNW,331,3.0,6.0,40,0.00,,,0.00,Wunderground v.1.15,2013-03-04 23:43:00,
2013-03-04 18:48:00,35.9,14.5,30.01,NNW,333,3.0,6.0,41,0.00,,,0.00,Wunderground v.1.15,2013-03-04 23:48:00,
2013-03-04 18:53:00,35.9,14.5,30.01,NW,317,4.0,12.0,41,0.00,,,0.00,Wunderground v.1.15,2013-03-04 23:53:00,
2013-03-04 18:58:00,36.2,14.7,30.01,West,266,2.0,12.0,41,0.00,,,0.00,Wunderground v.1.15,2013-03-04 23:58:00,
2013-03-04 19:00:00,35.5,14.7,30.03,West,270,3.0,11.0,42,0.00,,---,0.00,VWS V14.01,2013-03-05 00:00:00,
2013-03-04 19:03:00,36.2,15.3,30.01,NNW,336,3.0,5.0,42,0.00,,,0.00,Wunderground v.1.15,2013-03-05 00:03:00,
2013-03-04 19:08:00,36.0,14.5,30.01,WSW,241,3.0,7.0,41,0.00,,,0.00,Wunderground v.1.15,2013-03-05 00:08:00,
2013-03-04 19:13:00,36.0,14.5,30.01,NW,305,4.0,9.0,41,0.00,,,0.00,Wunderground v.1.15,2013-03-05 00:13:00,
2013-03-04 19:18:00,36.0,15.1,30.01,WNW,296,3.0,9.0,42,0.00,,,0.00,Wunderground v.1.15,2013-03-05 00:18:00,
2013-03-04 19:23:00,36.0,14.5,30.02,WNW,302,1.0,9.0,41,0.00,,,0.00,Wunderground v.1.15,2013-03-05 00:23:00,
2013-03-04 19:28:00,36.2,14.7,30.02,NW,306,2.0,14.0,41,0.00,,,0.00,Wunderground v.1.15,2013-03-05 00:28:00,
2013-03-04 19:30:00,33.8,16.2,30.03,SSE,158,1.0,4.0,48,0.00,,---,0.00,VWS V14.01,2013-03-05 00:30:00,
2013-03-04 19:34:00,36.2,14.7,30.02,West,269,3.0,9.0,41,0.00,,,0.00,Wunderground v.1.15,2013-03-05 00:34:00,
2013-03-04 19:39:00,36.0,14.5,30.02,WSW,254,3.0,11.0,41,0.00,,,0.00,Wunderground v.1.15,2013-03-05 00:39:00,
2013-03-04 19:44:00,35.9,15.0,30.02,WSW,247,3.0,5.0,42,0.00,,,0.00,Wunderground v.1.15,2013-03-05 00:44:00,
2013-03-04 19:49:00,35.8,14.9,30.02,West,270,5.0,9.0,42,0.00,,,0.00,Wunderground v.1.15,2013-03-05 00:49:00,
2013-03-04 19:54:00,35.6,14.7,30.02,SW,217,2.0,5.0,42,0.00,,,0.00,Wunderground v.1.15,2013-03-05 00:54:00,
2013-03-04 19:59:00,35.5,14.6,30.03,West,267,4.0,7.0,42,0.00,,,0.00,Wunderground v.1.15,2013-03-05 00:59:00,
2013-03-04 20:00:00,31.8,15.8,30.04,SSW,202,1.0,5.0,51,0.00,,---,0.00,VWS V14.01,2013-03-05 01:00:00,
2013-03-04 20:04:00,35.5,14.6,30.02,WNW,284,2.0,3.0,42,0.00,,,0.00,Wunderground v.1.15,2013-03-05 01:04:00,
2013-03-04 20:09:00,35.3,16.0,30.03,South,169,1.0,4.0,45,0.00,,,0.00,Wunderground v.1.15,2013-03-05 01:09:00,
2013-03-04 20:14:00,34.9,15.2,30.03,SSE,167,1.0,2.0,44,0.00,,,0.00,Wunderground v.1.15,2013-03-05 01:14:00,
2013-03-04 20:19:00,34.6,15.4,30.03,SSE,167,2.0,2.0,45,0.00,,,0.00,Wunderground v.1.15,2013-03-05 01:19:00,
2013-03-04 20:24:00,34.1,15.5,30.03,SSW,199,0.0,4.0,46,0.00,,,0.00,Wunderground v.1.15,2013-03-05 01:24:00,
2013-03-04 20:29:00,33.8,16.2,30.03,SSW,198,1.0,4.0,48,0.00,,,0.00,Wunderground v.1.15,2013-03-05 01:29:00,
2013-03-04 20:30:00,30.7,16.5,30.04,South,180,0.0,3.0,55,0.00,,---,0.00,VWS V14.01,2013-03-05 01:30:00,
2013-03-04 20:34:00,33.4,15.8,30.04,SSW,198,0.0,2.0,48,0.00,,,0.00,Wunderground v.1.15,2013-03-05 01:34:00,
2013-03-04 20:39:00,33.1,15.5,30.04,SSW,198,0.0,2.0,48,0.00,,,0.00,Wunderground v.1.15,2013-03-05 01:39:00,
2013-03-04 20:44:00,32.8,15.2,30.04,SSW,198,2.0,3.0,48,0.00,,,0.00,Wunderground v.1.15,2013-03-05 01:44:00,
2013-03-04 20:49:00,32.5,15.4,30.04,SSW,198,1.0,3.0,49,0.00,,,0.00,Wunderground v.1.15,2013-03-05 01:49:00,
2013-03-04 20:54:00,32.2,16.1,30.04,South,179,2.0,5.0,51,0.00,,,0.00,Wunderground v.1.15,2013-03-05 01:54:00,
2013-03-04 20:59:00,31.8,15.7,30.04,SSW,213,0.0,5.0,51,0.00,,,0.00,Wunderground v.1.15,2013-03-05 01:59:00,
2013-03-04 21:00:00,29.7,17.1,30.03,WSW,248,0.0,2.0,59,0.00,,---,0.00,VWS V14.01,2013-03-05 02:00:00,
2013-03-04 21:04:00,31.6,15.5,30.03,South,176,0.0,3.0,51,0.00,,,0.00,Wunderground v.1.15,2013-03-05 02:04:00,
2013-03-04 21:09:00,31.3,17.0,30.03,South,176,1.0,3.0,55,0.00,,,0.00,Wunderground v.1.15,2013-03-05 02:09:00,
2013-03-04 21:15:00,31.3,16.6,30.04,South,176,2.0,2.0,54,0.00,,,0.00,Wunderground v.1.15,2013-03-05 02:15:00,
2013-03-04 21:20:00,31.0,16.3,30.04,South,176,1.0,1.0,54,0.00,,,0.00,Wunderground v.1.15,2013-03-05 02:20:00,
2013-03-04 21:25:00,30.9,17.4,30.04,South,176,0.0,1.0,57,0.00,,,0.00,Wunderground v.1.15,2013-03-05 02:25:00,
2013-03-04 21:30:00,30.7,16.4,30.04,South,176,0.0,0.0,55,0.00,,,0.00,Wunderground v.1.15,2013-03-05 02:30:00,
2013-03-04 21:35:00,30.6,16.3,30.04,SSW,194,0.0,2.0,55,0.00,,,0.00,Wunderground v.1.15,2013-03-05 02:35:00,
2013-03-04 21:40:00,30.3,16.9,30.04,WSW,239,2.0,2.0,57,0.00,,,0.00,Wunderground v.1.15,2013-03-05 02:40:00,
2013-03-04 21:45:00,30.1,17.1,30.03,WSW,239,0.0,2.0,58,0.00,,,0.00,Wunderground v.1.15,2013-03-05 02:45:00,
2013-03-04 21:50:00,30.0,17.0,30.03,WSW,239,1.0,1.0,58,0.00,,,0.00,Wunderground v.1.15,2013-03-05 02:50:00,
2013-03-04 21:55:00,29.8,16.8,30.03,WSW,239,0.0,1.0,58,0.00,,,0.00,Wunderground v.1.15,2013-03-05 02:55:00,
2013-03-04 22:00:00,29.7,17.1,30.03,WSW,239,0.0,1.0,59,0.00,,,0.00,Wunderground v.1.15,2013-03-05 03:00:00,
2013-03-04 22:05:00,29.5,16.9,30.03,WSW,239,0.0,2.0,59,0.00,,,0.00,Wunderground v.1.15,2013-03-05 03:05:00,
2013-03-04 22:11:00,29.3,17.1,30.03,WSW,239,1.0,1.0,60,0.00,,,0.00,Wunderground v.1.15,2013-03-05 03:11:00,
2013-03-04 22:16:00,29.1,16.9,30.03,WSW,239,1.0,2.0,60,0.00,,,0.00,Wunderground v.1.15,2013-03-05 03:16:00,
2013-03-04 22:21:00,28.8,17.0,30.04,WSW,240,1.0,2.0,61,0.00,,,0.00,Wunderground v.1.15,2013-03-05 03:21:00,
2013-03-04 22:26:00,28.7,16.9,30.04,WSW,241,1.0,2.0,61,0.00,,,0.00,Wunderground v.1.15,2013-03-05 03:26:00,
2013-03-04 22:30:00,29.8,15.2,30.05,West,270,1.0,4.0,54,0.00,,---,0.00,VWS V14.01,2013-03-05 03:30:00,
2013-03-04 22:31:00,28.5,17.1,30.04,West,273,1.0,4.0,62,0.00,,,0.00,Wunderground v.1.15,2013-03-05 03:31:00,
2013-03-04 22:36:00,28.7,16.9,30.04,WSW,252,1.0,4.0,61,0.00,,,0.00,Wunderground v.1.15,2013-03-05 03:36:00,
2013-03-04 22:41:00,28.7,16.9,30.04,WSW,252,0.0,1.0,61,0.00,,,0.00,Wunderground v.1.15,2013-03-05 03:41:00,
2013-03-04 22:46:00,28.7,16.9,30.04,WSW,252,0.0,1.0,61,0.00,,,0.00,Wunderground v.1.15,2013-03-05 03:46:00,
2013-03-04 22:51:00,28.7,17.3,30.04,SW,223,1.0,2.0,62,0.00,,,0.00,Wunderground v.1.15,2013-03-05 03:51:00,
2013-03-04 22:56:00,28.5,16.7,30.04,WSW,250,1.0,3.0,61,0.00,,,0.00,Wunderground v.1.15,2013-03-05 03:56:00,
2013-03-04 23:00:00,34.0,15.4,30.04,WNW,292,3.0,9.0,46,0.00,,---,0.00,VWS V14.01,2013-03-05 04:00:00,
2013-03-04 23:01:00,28.5,16.7,30.04,SW,233,1.0,1.0,61,0.00,,,0.00,Wunderground v.1.15,2013-03-05 04:01:00,
2013-03-04 23:06:00,28.5,17.1,30.04,SW,233,0.0,1.0,62,0.00,,,0.00,Wunderground v.1.15,2013-03-05 04:06:00,
2013-03-04 23:11:00,28.5,16.7,30.04,West,271,0.0,1.0,61,0.00,,,0.00,Wunderground v.1.15,2013-03-05 04:11:00,
2013-03-04 23:16:00,28.5,17.1,30.05,West,267,2.0,3.0,62,0.00,,,0.00,Wunderground v.1.15,2013-03-05 04:16:00,
2013-03-04 23:21:00,28.7,16.9,30.05,West,267,2.0,3.0,61,0.00,,,0.00,Wunderground v.1.15,2013-03-05 04:21:00,
2013-03-04 23:27:00,29.1,15.3,30.05,WNW,290,3.0,4.0,56,0.00,,,0.00,Wunderground v.1.15,2013-03-05 04:27:00,
2013-03-04 23:30:00,34.1,15.5,30.04,WNW,292,2.0,6.0,46,0.00,,---,0.00,VWS V14.01,2013-03-05 04:30:00,
2013-03-04 23:32:00,30.3,15.2,30.05,WNW,294,1.0,5.0,53,0.00,,,0.00,Wunderground v.1.15,2013-03-05 04:32:00,
2013-03-04 23:37:00,31.5,15.4,30.04,WNW,290,4.0,5.0,51,0.00,,,0.00,Wunderground v.1.15,2013-03-05 04:37:00,
2013-03-04 23:42:00,32.4,15.3,30.05,WNW,294,3.0,5.0,49,0.00,,,0.00,Wunderground v.1.15,2013-03-05 04:42:00,
2013-03-04 23:47:00,33.1,16.5,30.04,NW,316,3.0,5.0,50,0.00,,,0.00,Wunderground v.1.15,2013-03-05 04:47:00,
2013-03-04 23:52:00,33.5,15.4,30.04,NW,313,3.0,9.0,47,0.00,,,0.00,Wunderground v.1.15,2013-03-05 04:52:00,
2013-03-04 23:58:00,33.8,15.7,30.04,WNW,295,3.0,9.0,47,0.00,,,0.00,Wunderground v.1.15,2013-03-05 04:58:00,